Location: Ago
(8.4667°N, 4.4833°E)
Time: 23:32:34
(UTC+00:00)

Cosmos 2285 Rocket - Pass Details

Date: 18 September 2020
Orbit: 970 x 1000 km, 74.0° (Epoch: 20 October)

Event Time Altitude Azimuth Distance (km) Brightness Sun altitude
Rises 19:20:36 0° 195° (SSW) 3,655 7.1 -25.6°
Reaches altitude 10° 19:23:07 10° 196° (SSW) 2,706 6.4 -26.2°
Maximum altitude 19:29:23 80° 282° (WNW) 985 4.0 -27.8°
Drops below altitude 10° 19:35:40 10° 9° (N) 2,709 6.3 -29.3°
Sets 19:38:12 0° 11° (N) 3,658 7.0 -29.9°
